Location: Newark
(56.0692°N, 115.8617°E)
Time: 12:22:17
(UTC+00:00)

Vanguard 2 Rocket - Pass Details

Date: 26 May 2020
Orbit: 556 x 3325 km, 32.9° (Epoch: 14 July)

Event Time Altitude Azimuth Distance (km) Brightness Sun altitude
Rises 14:14:37 0° 264° (W) 6,393 11.5 -8.7°
Reaches altitude 10° 14:20:46 10° 248° (WSW) 5,784 11.0 -9.0°
Maximum altitude 14:30:53 18° 214° (SW) 5,535 10.6 -9.7°
Drops below altitude 10° 14:41:48 10° 181° (S) 6,256 10.6 -10.2°
Enters shadow 14:43:26 - 177° (S) 6,429 10.6 -10.3°
Sets 14:49:04 0° 165° (SSE) 7,105 - -10.6°
